Regional Weather Roundup
Issued by NWS Kansas City/Pleasant Hill, MO

Home | Current Version | Previous Version | Graphics & Text | Print | Product List | Glossary Off
Versions: 1 2 3 4 5 6 7 8 9 10 11 12 13 14 15 16 17 18 19 20 21 22 23 24 25 26 27 28 29 30 31 32 33 34 35 36 37 38 39 40 41 42 43 44 45 46 47 48 49 50

350
ASUS43 KEAX 301310
RWREAX

WEATHER ROUNDUP FOR EASTERN KANSAS AND NORTHWEST MISSOURI
NATIONAL WEATHER SERVICE KANSAS CITY/PLEASANT HILL MO
800 AM CDT FRI SEP 30 2016

KSZ040-057-103>105-MOZ028-029-037-043-301400-
...KANSAS CITY METROPOLITAN AREA...

CITY           SKY/WX    TMP DP  RH WIND       PRES   REMARKS
K.C. INTL      CLEAR     50  46  86 N5        30.25S
K.C. DOWNTOWN  CLEAR     53  49  86 CALM      30.25R
LEES SUMMIT    CLEAR     52  50  93 CALM      30.25R
OLATHE - IXD   CLEAR     50  48  93 NW5       30.25S
OLATHE - OJC   CLEAR     51  48  89 N6        30.24S
LAWRENCE       CLEAR     48  47  96 NW5       30.26S

$$

MOZ001>008-011>017-020>025-030>033-038>040-044>046-053-054-301400-
...NORTHERN AND CENTRAL MISSOURI...

CITY           SKY/WX    TMP DP  RH WIND       PRES   REMARKS
ST. JOSEPH     CLEAR     48  47  96 NE6       30.27R
MOSBY          SUNNY     50  50 100 CALM      30.24F
WHITEMAN AFB   CLEAR     52  52  99 N5        30.20F
CLINTON        CLEAR     50  48  93 CALM      30.22S
SEDALIA        CLEAR     53  50  89 NW6       30.21S
WARSAW         NOT AVBL
CHILLICOTHE      N/A     53  50  89 NW6       30.23F
KIRKSVILLE     CLEAR     53  48  83 N8        30.21F

$$

MOZ041-047>049-056>058-063>065-088>090-097-301400-
...EASTERN AND SOUTHERN MISSOURI...

CITY           SKY/WX    TMP DP  RH WIND       PRES   REMARKS
ST. LOUIS INTL CLOUDY    62  56  80 NW9       30.12S
SPIRIT OF STL  CLOUDY    62  57  83 NW7       30.11F
COLUMBIA       CLEAR     56  53  90 N7        30.18S
JEFFERSON CITY PTCLDY    56  54  93 W5        30.17S
ROLLA          SUNNY     55  54  96 NW8       30.15S
OSAGE BEACH    CLEAR     53  52  96 NW3       30.19F
SPRINGFIELD    CLEAR     51  48  89 NW5       30.20S
BRANSON        CLEAR     54  50  87 CALM      30.21R
JOPLIN         CLEAR     48  47  96 CALM      30.23R
WEST PLAINS    PTSUNNY   57  53  86 N6        30.17S

$$

IAZ060-094-KSZ022-034>040-054-083-096-NEZ052-066-093-301400-
...KANSAS...SOUTHEAST NEBRASKA AND IOWA...

CITY           SKY/WX    TMP DP  RH WIND       PRES   REMARKS
TOPEKA         CLEAR     48  46  93 CALM      30.27S
MANHATTAN      PTCLDY    45  43  93 CALM      30.28S
EMPORIA        CLEAR     48  47  96 NW5       30.27R
CHANUTE        CLEAR     51  49  92 NW5       30.25R
WICHITA        CLEAR     50  48  93 N5        30.28R
OMAHA          CLEAR     47  43  86 N6        30.31R
LINCOLN        CLEAR     44  42  93 N3        30.32R
FALLS CITY     CLEAR     48  46  93 NW7       30.27F
LAMONI         CLEAR     50  48  93 N8        30.25F
DES MOINES     PTCLDY    55  49  80 NE10      30.27S

$$





USA.gov is the U.S. government's official web portal to all federal, state and local government web resources and services.